Weather History for Ft Lauderdale, FL

Change the Weather History Date:

Wednesday, January 15, 2014

  Actual Average Record
Temperature  
Mean Temperature 64 °F 69 °F  
Max Temperature 70 °F 76 °F 84 °F (1972)
Min Temperature 57 °F 61 °F 31 °F (1948)
Degree Days  
Heating Degree Days 1 2  
Month to date heating degree days 19 30  
Since 1 July heating degree days 23 62  
Cooling Degree Days 0 5  
Month to date cooling degree days 94 84  
Year to date cooling degree days 94 84  
Growing Degree Days 13 (Base 50)    
Moisture  
Dew Point 59 °F    
Average Humidity 76    
Maximum Humidity 100    
Minimum Humidity 52    
Precipitation  
Precipitation 0.03 in 0.08 in 2.41 in (1974)
Month to date precipitation 1.81 1.23  
Year to date precipitation 1.81 1.23  
Snow  
Snow 0.00 in - - ()
Month to date snowfall 0.0  
Since 1 July snowfall 0.0  
Snow Depth 0.00 in    
Sea Level Pressure  
Sea Level Pressure 29.98 in    
Wind  
Wind Speed 6 mph (NW)    
Max Wind Speed 16 mph    
Max Gust Speed 22 mph    
Visibility 10 miles    
Events Rain    
T = Trace of Precipitation, MM = Missing Value Source: NWS Daily Summary

Daily Weather History Graph

Daily Weather History Graph

Search for Another Location

Airport:

Trip Planner

Search our weather history database for the weather conditions in past years. The results will help you decide how hot, cold, wet, or windy it might be!

Date:

Astronomy

Jan. 15, 2014 Rise Set
Actual Time 7:09 AM EST 5:50 PM EST
Civil Twilight 6:44 AM EST 6:15 PM EST
Nautical Twilight 6:16 AM EST 6:43 PM EST
Astronomical Twilight 5:48 AM EST 7:11 PM EST
Moon 5:41 PM EST (1/15) 6:29 AM EST (1/15)
Length of Visible Light 11h 31m
Length of Day
10h 41m
Full, 100% of the Moon is Illuminated
Jan 15
Full
Jan 15
Full
Jan 24
Last Quarter
Jan 30
New
Feb 6
First Quarter

Hourly Weather History & Observations

Time (EST) Temp. Dew Point Humidity Pressure Visibility Wind Dir Wind Speed Gust Speed Precip Events Conditions
12:53 AM 69.1 °F 66.0 °F 90% 29.97 in 10.0 mi NNW 4.6 mph - N/A   Overcast
1:07 AM 69.8 °F 66.2 °F 88% 29.97 in 10.0 mi Calm Calm - N/A   Mostly Cloudy
1:53 AM 68.0 °F 64.9 °F 90% 29.97 in 10.0 mi Calm Calm - N/A   Mostly Cloudy
2:53 AM 68.0 °F 64.9 °F 90% 29.96 in 10.0 mi Calm Calm - N/A   Scattered Clouds
3:02 AM 68.0 °F 64.4 °F 88% 29.97 in 10.0 mi Calm Calm - N/A   Mostly Cloudy
3:33 AM 68.0 °F 64.4 °F 88% 29.96 in 10.0 mi Calm Calm - N/A   Mostly Cloudy
3:53 AM 66.9 °F 64.0 °F 90% 29.96 in 10.0 mi NNW 4.6 mph - N/A   Mostly Cloudy
4:53 AM 66.9 °F 64.0 °F 90% 29.94 in 10.0 mi Calm Calm - N/A   Mostly Cloudy
5:53 AM 68.0 °F 63.0 °F 84% 29.94 in 10.0 mi Calm Calm - N/A   Mostly Cloudy
6:34 AM 66.2 °F 64.4 °F 94% 29.97 in 4.0 mi WNW 15.0 mph - 0.00 in Rain Light Rain
6:47 AM 66.2 °F 64.4 °F 94% 29.97 in 6.0 mi WNW 10.4 mph - 0.01 in Rain Light Rain
6:53 AM 64.9 °F 64.0 °F 97% 29.97 in 6.0 mi NW 6.9 mph - 0.01 in Rain Light Rain
7:36 AM 64.4 °F 64.4 °F 100% 29.98 in 10.0 mi NNW 6.9 mph - 0.02 in   Overcast
7:53 AM 64.0 °F 64.0 °F 100% 29.98 in 9.0 mi Calm Calm - 0.02 in   Overcast
8:53 AM 64.9 °F 64.9 °F 100% 30.00 in 10.0 mi WNW 6.9 mph - N/A   Mostly Cloudy
9:29 AM 68.0 °F 64.4 °F 88% 30.01 in 10.0 mi WNW 10.4 mph 17.3 mph N/A   Mostly Cloudy
9:53 AM 66.9 °F 64.9 °F 93% 30.02 in 10.0 mi WNW 10.4 mph - N/A   Mostly Cloudy
10:21 AM 64.4 °F 64.4 °F 100% 30.02 in 9.0 mi WNW 13.8 mph - N/A   Mostly Cloudy
10:53 AM 64.9 °F 62.1 °F 90% 30.02 in 10.0 mi WNW 12.7 mph - N/A   Mostly Cloudy
11:01 AM 66.2 °F 60.8 °F 83% 30.02 in 10.0 mi WNW 11.5 mph - N/A   Mostly Cloudy
11:25 AM 64.4 °F 62.6 °F 94% 30.02 in 10.0 mi NW 11.5 mph 20.7 mph N/A   Mostly Cloudy
11:53 AM 64.0 °F 60.1 °F 87% 30.00 in 10.0 mi NW 9.2 mph 18.4 mph N/A   Mostly Cloudy
12:53 PM 64.9 °F 53.1 °F 65% 29.98 in 8.0 mi WNW 11.5 mph - N/A   Mostly Cloudy
1:53 PM 64.0 °F 48.9 °F 58% 29.98 in 10.0 mi NW 11.5 mph 19.6 mph N/A   Mostly Cloudy
2:53 PM 64.9 °F 50.0 °F 58% 29.94 in 10.0 mi WNW 4.6 mph - N/A   Mostly Cloudy
3:53 PM 66.0 °F 51.1 °F 59% 29.96 in 10.0 mi WNW 9.2 mph - N/A   Overcast
4:53 PM 64.0 °F 46.9 °F 54% 29.94 in 10.0 mi Variable 5.8 mph - N/A   Mostly Cloudy
5:53 PM 62.1 °F 50.0 °F 65% 29.97 in 10.0 mi WNW 9.2 mph - N/A   Overcast
6:53 PM 61.0 °F 51.1 °F 70% 30.00 in 10.0 mi WNW 12.7 mph - N/A   Overcast
7:53 PM 60.1 °F 48.9 °F 67% 30.01 in 10.0 mi WNW 9.2 mph - N/A   Overcast
8:53 PM 59.0 °F 48.9 °F 69% 30.01 in 10.0 mi WNW 4.6 mph - N/A   Overcast
9:53 PM 57.9 °F 51.1 °F 78% 30.01 in 10.0 mi NW 6.9 mph - 0.00 in Rain Light Rain
10:53 PM 57.0 °F 52.0 °F 83% 30.01 in 10.0 mi NNW 3.5 mph - 0.00 in Rain Light Rain
11:53 PM 57.0 °F 53.1 °F 87% 29.99 in 10.0 mi Calm Calm - 0.00 in   Mostly Cloudy